Location: Cisewo
(53.3833°N, 14.9000°E)
Time: 01:22:19
(UTC+00:00)

POLYITAN 1 - Pass Details

Date: 29 September 2021
Orbit: 588 x 611 km, 97.9° (Epoch: 24 October)

Event Time Altitude Azimuth Distance (km) Brightness Sun altitude
Rises 02:10:58 0° 4° (N) 2,863 ? -24.6°
Reaches altitude 10° 02:13:47 10° 344° (NNW) 1,950 ? -24.3°
Enters shadow 02:15:04 14° 327° (NNW) 1,672 ? -24.1°
